{"data":{"norad_id":65372,"epoch":"2026-09-20T22:08:27.963168Z","epoch_age_seconds":78323,"freshness":"FRESH","line1":"1 65372U 25190X   26263.92254587  .00013604  00000+0  41318-3 0  9994","line2":"2 65372  53.1597 339.3942 0000947  98.3936 261.7174 15.34387749 59672","mean_motion":15.34387749,"eccentricity":9.47e-5,"inclination_deg":53.1597,"raan_deg":339.3942,"arg_perigee_deg":98.3936,"mean_anomaly_deg":261.7174,"bstar":0.00041318,"rev_number":5967,"period_min":93.848507389249,"perigee_km":462.09182198412,"apogee_km":463.3874840222,"semimajor_km":6840.8766530032,"source":"CELESTRAK","updated_at":"2026-09-21T09:00:35.579526Z"}}